When you browse on this site, cookies collect data to enhance your experience and personalize the content and advertising you see.
Visit our Privacy Policy to learn more. By continuing to use the site, you agree to this use of cookies and data.
  • In Austria
  • List of Countries
  • For 7 days
  • Water Temperature
  • Satellite Maps
  • Weather Map
  • News
  • Weather Widgets
  • user-avatar
    Login

    Hourly Weather Madinat 'Isa

    Today, 20 April, Saturday

    Time Temperature Precipitation Wind Pressure Humidity
    00:00 +28°C° 0 mm 6 mps 755 mmHg 56%
    01:00 +28°C° 0 mm 6 mps 755 mmHg 57%
    02:00 +28°C° 0 mm 6 mps 755 mmHg 57%
    03:00 +28°C° 0 mm 5 mps 754 mmHg 56%
    04:00 +28°C° 0 mm 5 mps 755 mmHg 56%
    05:00 +28°C° 0 mm 5 mps 755 mmHg 55%
    06:00 +28°C° 0 mm 5 mps 755 mmHg 55%
    07:00 +29°C° 0 mm 5 mps 755 mmHg 51%
    08:00 +30°C° 0 mm 5 mps 755 mmHg 47%
    09:00 +32°C° 0 mm 5 mps 755 mmHg 44%
    10:00 +32°C° 0 mm 4 mps 755 mmHg 42%
    11:00 +33°C° 0 mm 4 mps 755 mmHg 40%
    12:00 +33°C° 0 mm 4 mps 755 mmHg 37%
    13:00 +33°C° 0 mm 4 mps 755 mmHg 37%
    14:00 +33°C° 0 mm 4 mps 754 mmHg 37%
    15:00 +33°C° 0 mm 4 mps 754 mmHg 37%
    16:00 +32°C° 0 mm 5 mps 754 mmHg 41%
    17:00 +30°C° 0 mm 5 mps 754 mmHg 45%
    18:00 +29°C° 0 mm 6 mps 754 mmHg 49%
    19:00 +29°C° 0 mm 6 mps 754 mmHg 51%
    20:00 +28°C° 0 mm 7 mps 755 mmHg 53%
    21:00 +28°C° 0 mm 7 mps 755 mmHg 56%
    22:00 +28°C° 0 mm 7 mps 755 mmHg 54%
    23:00 +28°C° 0 mm 7 mps 755 mmHg 52%

    Tomorrow, 21 April, Sunday

    Time Temperature Precipitation Wind Pressure Humidity
    00:00 +28°C° 0 mm 7 mps 755 mmHg 51%
    01:00 +28°C° 0 mm 7 mps 754 mmHg 51%
    02:00 +27°C° 0 mm 7 mps 754 mmHg 51%
    03:00 +27°C° 0 mm 7 mps 754 mmHg 51%
    04:00 +27°C° 0 mm 7 mps 754 mmHg 52%
    05:00 +27°C° 0 mm 7 mps 754 mmHg 53%
    06:00 +27°C° 0 mm 7 mps 755 mmHg 54%
    07:00 +28°C° 0 mm 6 mps 755 mmHg 53%
    08:00 +28°C° 0 mm 6 mps 755 mmHg 52%
    09:00 +28°C° 0 mm 6 mps 755 mmHg 50%
    10:00 +29°C° 0 mm 5 mps 755 mmHg 46%
    11:00 +30°C° 0 mm 5 mps 755 mmHg 42%
    12:00 +32°C° 0 mm 4 mps 754 mmHg 37%
    13:00 +32°C° 0 mm 4 mps 754 mmHg 37%
    14:00 +32°C° 0 mm 4 mps 753 mmHg 37%
    15:00 +32°C° 0 mm 4 mps 753 mmHg 38%
    16:00 +31°C° 0.1 mm 3 mps 753 mmHg 38%
    17:00 +31°C° 0.1 mm 2 mps 753 mmHg 38%
    18:00 +30°C° 0.1 mm 2 mps 753 mmHg 38%
    19:00 +30°C° 0.1 mm 2 mps 753 mmHg 39%
    20:00 +29°C° 0.1 mm 2 mps 754 mmHg 40%
    21:00 +29°C° 0.1 mm 2 mps 754 mmHg 41%
    22:00 +29°C° 0.1 mm 3 mps 754 mmHg 44%
    23:00 +28°C° 0.1 mm 4 mps 753 mmHg 47%

    Day after tomorrow, 22 April, Monday

    Time Temperature Precipitation Wind Pressure Humidity
    00:00 +28°C° 0.1 mm 5 mps 753 mmHg 50%
    01:00 +28°C° 0.3 mm 5 mps 753 mmHg 52%
    02:00 +28°C° 0.3 mm 5 mps 752 mmHg 55%
    03:00 +27°C° 0.3 mm 4 mps 752 mmHg 58%
    04:00 +28°C° 0.2 mm 5 mps 752 mmHg 58%
    05:00 +28°C° 0.2 mm 5 mps 753 mmHg 58%
    06:00 +28°C° 0.2 mm 5 mps 753 mmHg 58%
    07:00 +29°C° 0.2 mm 4 mps 753 mmHg 55%
    08:00 +30°C° 0.2 mm 3 mps 754 mmHg 51%
    09:00 +31°C° 0.2 mm 1 mps 754 mmHg 48%
    10:00 +31°C° 0 mm 2 mps 754 mmHg 47%
    11:00 +32°C° 0 mm 2 mps 754 mmHg 47%
    12:00 +34°C° 0 mm 3 mps 755 mmHg 46%
    13:00 +33°C° 0 mm 5 mps 754 mmHg 50%
    14:00 +32°C° 0 mm 7 mps 754 mmHg 54%
    15:00 +31°C° 0 mm 9 mps 754 mmHg 59%
    16:00 +29°C° 0.2 mm 9 mps 754 mmHg 58%
    17:00 +28°C° 0.2 mm 10 mps 754 mmHg 58%
    18:00 +26°C° 0.2 mm 11 mps 755 mmHg 58%
    19:00 +26°C° 0.1 mm 11 mps 756 mmHg 57%
    20:00 +26°C° 0.1 mm 11 mps 756 mmHg 55%
    21:00 +26°C° 0.1 mm 10 mps 757 mmHg 54%
    22:00 +26°C° 0 mm 10 mps 757 mmHg 51%
    23:00 +26°C° 0 mm 11 mps 757 mmHg 48%

    23 April, Tuesday

    Time Temperature Precipitation Wind Pressure Humidity
    00:00 +26°C° 0 mm 11 mps 757 mmHg 44%
    01:00 +26°C° 0 mm 11 mps 757 mmHg 44%
    02:00 +26°C° 0 mm 12 mps 757 mmHg 43%
    03:00 +24°C° 0 mm 13 mps 757 mmHg 42%
    04:00 +24°C° 0 mm 12 mps 758 mmHg 42%
    05:00 +24°C° 0 mm 12 mps 758 mmHg 41%
    06:00 +24°C° 0 mm 12 mps 759 mmHg 40%
    07:00 +26°C° 0 mm 11 mps 759 mmHg 39%
    08:00 +26°C° 0 mm 11 mps 760 mmHg 37%
    09:00 +27°C° 0 mm 10 mps 761 mmHg 35%
    10:00 +27°C° 0 mm 10 mps 761 mmHg 34%
    11:00 +27°C° 0 mm 10 mps 761 mmHg 33%
    12:00 +28°C° 0 mm 10 mps 760 mmHg 32%
    13:00 +27°C° 0 mm 11 mps 760 mmHg 33%
    14:00 +27°C° 0 mm 11 mps 760 mmHg 33%
    15:00 +27°C° 0 mm 12 mps 760 mmHg 34%
    16:00 +26°C° 0 mm 11 mps 760 mmHg 35%
    17:00 +26°C° 0 mm 11 mps 760 mmHg 36%
    18:00 +24°C° 0 mm 11 mps 760 mmHg 37%
    19:00 +24°C° 0 mm 10 mps 761 mmHg 38%
    20:00 +24°C° 0 mm 9 mps 761 mmHg 39%
    21:00 +24°C° 0 mm 8 mps 761 mmHg 40%
    22:00 +24°C° 0 mm 8 mps 761 mmHg 40%
    23:00 +24°C° 0 mm 8 mps 761 mmHg 41%

    24 April, Wednesday

    Time Temperature Precipitation Wind Pressure Humidity
    00:00 +24°C° 0 mm 8 mps 761 mmHg 42%
    01:00 +24°C° 0 mm 8 mps 761 mmHg 43%
    02:00 +24°C° 0 mm 9 mps 760 mmHg 44%
    03:00 +24°C° 0 mm 9 mps 760 mmHg 46%
    04:00 +24°C° 0 mm 9 mps 761 mmHg 47%
    05:00 +24°C° 0 mm 9 mps 761 mmHg 48%
    06:00 +24°C° 0 mm 8 mps 761 mmHg 49%
    07:00 +26°C° 0 mm 9 mps 762 mmHg 45%
    08:00 +26°C° 0 mm 9 mps 762 mmHg 41%
    09:00 +27°C° 0 mm 9 mps 762 mmHg 38%
    10:00 +27°C° 0 mm 9 mps 762 mmHg 36%
    11:00 +28°C° 0 mm 9 mps 762 mmHg 35%
    12:00 +28°C° 0 mm 10 mps 761 mmHg 34%
    13:00 +28°C° 0 mm 10 mps 761 mmHg 33%
    14:00 +28°C° 0 mm 10 mps 760 mmHg 32%
    15:00 +28°C° 0 mm 10 mps 760 mmHg 32%
    16:00 +27°C° 0 mm 10 mps 760 mmHg 34%
    17:00 +26°C° 0 mm 10 mps 760 mmHg 37%
    18:00 +26°C° 0 mm 10 mps 760 mmHg 39%
    19:00 +26°C° 0 mm 9 mps 760 mmHg 39%
    20:00 +26°C° 0 mm 8 mps 761 mmHg 39%
    21:00 +26°C° 0 mm 8 mps 761 mmHg 40%
    22:00 +24°C° 0 mm 7 mps 761 mmHg 40%
    23:00 +24°C° 0 mm 7 mps 760 mmHg 40%

    25 April, Thursday

    Time Temperature Precipitation Wind Pressure Humidity
    00:00 +24°C° 0 mm 7 mps 760 mmHg 40%
    01:00 +24°C° 0 mm 7 mps 760 mmHg 41%
    02:00 +24°C° 0 mm 7 mps 760 mmHg 41%
    03:00 +24°C° 0 mm 7 mps 760 mmHg 42%
    04:00 +24°C° 0 mm 7 mps 760 mmHg 40%
    05:00 +24°C° 0 mm 7 mps 760 mmHg 39%
    06:00 +24°C° 0 mm 7 mps 760 mmHg 38%
    07:00 +26°C° 0 mm 7 mps 761 mmHg 34%
    08:00 +27°C° 0 mm 7 mps 761 mmHg 30%
    09:00 +28°C° 0 mm 7 mps 761 mmHg 27%
    10:00 +29°C° 0 mm 7 mps 761 mmHg 25%
    11:00 +29°C° 0 mm 7 mps 760 mmHg 24%
    12:00 +30°C° 0 mm 7 mps 760 mmHg 23%
    13:00 +30°C° 0 mm 7 mps 760 mmHg 25%
    14:00 +31°C° 0 mm 8 mps 759 mmHg 27%
    15:00 +29°C° 0 mm 8 mps 759 mmHg 29%
    16:00 +28°C° 0 mm 7 mps 759 mmHg 31%
    17:00 +27°C° 0 mm 7 mps 759 mmHg 33%
    18:00 +27°C° 0 mm 7 mps 759 mmHg 36%
    19:00 +26°C° 0 mm 6 mps 759 mmHg 38%
    20:00 +26°C° 0 mm 5 mps 759 mmHg 40%
    21:00 +26°C° 0 mm 4 mps 759 mmHg 41%
    22:00 +26°C° 0 mm 4 mps 759 mmHg 41%
    23:00 +26°C° 0 mm 3 mps 759 mmHg 40%
    Show more